TimeEST,TemperatureF,Dew PointF,Humidity,Sea Level PressureIn,VisibilityMPH,Wind Direction,Wind SpeedMPH,Gust SpeedMPH,PrecipitationIn,Events,Conditions,WindDirDegrees,DateUTC
12:53 AM,64.0,57.9,80,30.16,6.0,SSW,5.8,-,0.02,,Haze,200,2012-12-03 05:53:00
1:53 AM,63.0,57.9,84,30.15,10.0,South,3.5,-,0.00,,Overcast,180,2012-12-03 06:53:00
2:53 AM,64.0,55.9,75,30.15,10.0,SSW,4.6,-,N/A,,Overcast,210,2012-12-03 07:53:00
3:53 AM,63.0,55.9,78,30.15,10.0,South,4.6,-,N/A,,Overcast,190,2012-12-03 08:53:00
4:53 AM,62.1,55.9,80,30.14,10.0,SSE,4.6,-,N/A,,Mostly Cloudy,160,2012-12-03 09:53:00
5:53 AM,63.0,55.9,78,30.15,10.0,South,3.5,-,0.00,,Overcast,180,2012-12-03 10:53:00
6:53 AM,62.1,55.9,80,30.15,10.0,SSE,3.5,-,N/A,,Overcast,160,2012-12-03 11:53:00
7:53 AM,64.0,55.9,75,30.16,10.0,South,3.5,-,N/A,,Overcast,190,2012-12-03 12:53:00
8:53 AM,64.9,55.9,73,30.17,10.0,SSW,8.1,-,N/A,,Overcast,200,2012-12-03 13:53:00
9:53 AM,66.0,55.9,70,30.17,10.0,SSW,8.1,-,N/A,,Overcast,200,2012-12-03 14:53:00
10:53 AM,68.0,55.9,65,30.16,10.0,SW,9.2,17.3,N/A,,Overcast,220,2012-12-03 15:53:00
11:53 AM,70.0,57.0,63,30.14,10.0,SSW,10.4,21.9,N/A,,Mostly Cloudy,200,2012-12-03 16:53:00
12:53 PM,72.0,57.0,59,30.12,10.0,SW,16.1,19.6,N/A,,Clear,230,2012-12-03 17:53:00
1:53 PM,72.0,55.9,57,30.10,10.0,SW,11.5,19.6,N/A,,Clear,230,2012-12-03 18:53:00
2:53 PM,73.0,55.0,53,30.09,10.0,SSW,11.5,21.9,N/A,,Clear,200,2012-12-03 19:53:00
3:53 PM,72.0,54.0,53,30.08,10.0,SSW,11.5,18.4,N/A,,Partly Cloudy,210,2012-12-03 20:53:00
4:53 PM,71.1,54.0,55,30.09,10.0,SSW,8.1,-,N/A,,Clear,200,2012-12-03 21:53:00
5:53 PM,69.1,54.0,58,30.10,10.0,South,5.8,-,N/A,,Clear,180,2012-12-03 22:53:00
6:53 PM,68.0,53.1,59,30.10,10.0,South,8.1,-,N/A,,Clear,170,2012-12-03 23:53:00
7:53 PM,66.9,53.1,61,30.09,10.0,South,8.1,-,N/A,,Clear,170,2012-12-04 00:53:00
8:53 PM,66.0,52.0,60,30.09,10.0,South,6.9,-,N/A,,Clear,180,2012-12-04 01:53:00
9:53 PM,64.9,51.1,61,30.09,10.0,South,8.1,-,N/A,,Clear,180,2012-12-04 02:53:00
10:53 PM,64.9,51.1,61,30.09,10.0,South,11.5,17.3,N/A,,Scattered Clouds,180,2012-12-04 03:53:00
11:53 PM,64.9,51.1,61,30.11,10.0,South,5.8,16.1,N/A,,Overcast,190,2012-12-04 04:53:00